Lid_Strength_Index
8 11 14 12 11 11 12 13 14 13 12 13 14 13 12 10 10 9 9 8 7 6 4 4 3 3 4 3 3 3 3 2 2 3 3 3 3 3 3 3 4 5 5 4
11 13 11 9 10 11 12 13 14 12 12 13 14 13 12 12 11 9 9 9 7 7 6 5 4 4 4 3 3 3 3 3 3 4 4 4 4 4 4 5 5 5 4 3
12 11 9 10 11 13 13 13 14 14 13 12 13 14 13 11 12 10 10 10 10 8 8 7 6 5 5 4 4 3 3 3 4 4 4 5 6 5 5 5 5 5 4 3
11 9 10 11 12 12 15 11 12 14 14 17 13 19 14 12 11 12 11 10 10 10 11 11 11 10 9 9 8 7 6 5 4 4 4 4 5 5 5 5 5 4 4 4
12 12 11 12 11 10 13 10 13 13 14 15 16 18 16 13 13 13 12 11 13 12 11 11 10 10 10 10 10 9 8 7 7 6 5 5 6 6 6 6 5 6 5 5
13 10 10 10 9 10 11 12 13 13 15 19 16 17 18 15 14 13 14 13 13 12 11 11 10 10 10 10 10 10 9 9 8 7 7 7 7 7 7 6 7 7 7 7
14 12 11 9 11 10 11 15 19 20 20 21 17 18 16 13 13 14 14 13 12 12 12 11 10 10 10 10 10 9 9 9 9 8 7 7 7 7 7 6 7 7 7 7
17 18 13 11 11 13 13 14 19 23 22 21 19 19 17 13 13 13 13 12 12 11 10 10 10 10 10 10 9 10 9 9 9 9 8 8 8 7 7 6 6 6 7 7
16 16 11 11 11 11 13 16 13 19 22 21 20 18 15 14 14 13 13 13 12 11 11 10 10 10 10 10 9 9 9 9 9 9 9 9 8 8 7 6 6 6 6 7
13 16 12 11 11 11 13 13 17 19 25 25 22 21 20 16 15 13 13 12 12 11 10 10 10 9 9 9 9 9 9 9 9 8 9 9 8 8 7 6 6 6 6 7
11 13 14 12 13 15 15 17 16 16 19 23 23 21 15 15 13 13 13 12 12 11 10 10 9 9 9 8 8 8 9 9 9 8 8 8 8 8 7 7 6 6 7 8
11 13 18 15 12 11 12 15 15 19 20 19 19 19 13 13 12 12 12 11 11 10 10 10 9 9 9 9 9 8 8 8 8 8 8 8 8 8 8 8 7 7 7 8
10 14 18 16 14 12 14 14 14 14 16 19 21 20 12 13 13 12 12 11 10 10 10 10 10 10 9 9 8 8 7 7 7 7 8 8 8 8 9 9 8 8 8 9
9 14 16 18 17 14 15 14 14 14 18 18 18 16 13 12 12 11 11 11 10 10 10 10 9 9 9 8 8 8 7 7 7 7 7 8 8 8 8 8 8 8 8 9
10 15 14 13 13 13 13 13 13 14 14 17 14 14 12 12 12 12 11 10 10 10 10 10 9 9 9 8 9 8 8 8 8 8 8 8 7 7 8 9 9 9 9 8
11 14 14 15 13 13 14 13 13 13 13 13 12 13 10 13 13 13 11 11 11 11 10 10 9 9 9 9 9 8 8 9 9 9 9 8 9 8 9 9 9 10 10 10
13 14 16 18 15 15 18 15 13 12 12 11 14 11 12 13 12 12 11 11 11 10 10 10 10 10 10 10 9 10 10 10 10 10 10 10 10 10 9 9 9 9 9 9
14 16 17 20 19 23 15 13 12 12 12 11 12 13 12 12 11 10 10 11 11 10 10 10 10 10 10 10 10 10 10 11 12 12 12 11 11 11 11 11 10 10 10 10
13 15 22 22 28 19 17 15 15 14 16 13 13 13 12 12 11 12 10 10 10 10 9 10 10 10 11 11 11 12 12 13 13 13 13 13 13 13 12 12 11 10 11 11
13 15 21 29 27 26 17 15 13 12 17 13 12 12 12 12 15 14 11 10 10 10 10 11 12 12 13 13 13 13 13 14 14 13 13 13 14 14 14 13 13 11 11 11
25 26 25 29 29 23 16 13 12 19 17 12 12 12 12 13 12 11 11 11 11 11 12 12 13 14 14 14 14 14 14 15 14 14 14 14 14 14 14 13 13 12 12 11
21 25 26 28 28 25 13 13 16 14 12 12 12 11 11 11 12 12 12 12 13 13 13 14 15 15 15 15 15 15 16 15 15 16 16 16 16 15 14 14 14 13 13 12
20 16 19 18 18 13 12 12 11 11 12 12 12 11 11 12 12 13 13 13 13 14 14 14 15 16 16 16 16 17 17 17 17 18 18 18 17 16 15 15 15 14 13 13
14 13 15 14 14 12 11 11 10 11 11 11 11 12 12 13 13 13 14 14 15 15 16 16 17 18 18 17 17 18 18 18 20 20 20 19 19 18 17 15 15 14 14 13
16 15 17 16 13 13 13 12 11 12 12 12 13 13 14 14 14 14 15 16 16 17 17 18 19 19 19 19 20 20 20 20 21 21 21 20 20 19 18 17 15 14 12 12
15 16 16 18 14 14 13 13 13 13 14 14 15 15 15 15 16 16 18 18 18 19 20 20 21 22 22 22 22 22 22 22 23 23 22 22 22 20 19 17 16 12 11 10